,,Stat6,,Stat2,,Stat8,,Stat9,,Stat10,,Wind1,,Wind1,
time,status,PA1M_AVG,status,PR1M_SUM,status,RH1M_AVG,status,SR1M_AVG,status,TA1M_AVG,status,W1dAve1m,status,W1sAve1m,
2005-01-07, 00:00:00,VALID,919.707,VALID,0,VALID,100,VALID,0.0169808,VALID,18.6652,VALID,73,VALID,0.60245,
2005-01-07, 00:01:00,VALID,919.707,VALID,0,VALID,100,VALID,0,VALID,18.6496,VALID,92,VALID,0.592035,
2005-01-07, 00:02:00,VALID,919.691,VALID,0.2,VALID,100,VALID,0,VALID,18.6233,VALID,95,VALID,0.285065,
2005-01-07, 00:03:00,VALID,919.694,VALID,0,VALID,100,VALID,0,VALID,18.6066,VALID,102,VALID,0.39538,
2005-01-07, 00:04:00,VALID,919.678,VALID,0,VALID,100,VALID,0,VALID,18.5977,VALID,119,VALID,0.579985,
2005-01-07, 00:05:00,VALID,919.684,VALID,0,VALID,100,VALID,0.0169808,VALID,18.5977,VALID,132,VALID,0.611374,
2005-01-07, 00:06:00,VALID,919.677,VALID,0,VALID,100,VALID,0,VALID,18.591,VALID,130,VALID,0.452237,
2005-01-07, 00:07:00,VALID,919.677,VALID,0.2,VALID,100,VALID,0,VALID,18.5912,VALID,130,VALID,0.256288,
2005-01-07, 00:08:00,VALID,919.679,VALID,0,VALID,100,VALID,0,VALID,18.5811,VALID,127,VALID,0.308685,
2005-01-07, 00:09:00,VALID,919.671,VALID,0,VALID,100,VALID,0.0169808,VALID,18.5942,VALID,118,VALID,0.583841,
2005-01-07, 00:10:00,VALID,919.663,VALID,0,VALID,100,VALID,0.0339617,VALID,18.5776,VALID,116,VALID,0.414634,
2005-01-07, 00:11:00,VALID,919.652,VALID,0,VALID,100,VALID,0,VALID,18.5681,VALID,111,VALID,0.579799,
2005-01-07, 00:12:00,VALID,919.662,VALID,0.2,VALID,100,VALID,0,VALID,18.5693,VALID,110,VALID,0.439538,
2005-01-07, 00:13:00,VALID,919.647,VALID,0,VALID,100,VALID,0.0169808,VALID,18.5492,VALID,138,VALID,0.338663,
2005-01-07, 00:14:00,VALID,919.64,VALID,0,VALID,100,VALID,0,VALID,18.5532,VALID,138,VALID,0.21875,
2005-01-07, 00:15:00,VALID,919.63,VALID,0,VALID,100,VALID,0,VALID,18.5301,VALID,130,VALID,0.495998,
2005-01-07, 00:16:00,VALID,919.617,VALID,0,VALID,100,VALID,0,VALID,18.5139,VALID,129,VALID,0.610899,
2005-01-07, 00:17:00,VALID,919.607,VALID,0.2,VALID,100,VALID,0,VALID,18.5072,VALID,129,VALID,0.660792,
2005-01-07, 00:18:00,VALID,919.583,VALID,0,VALID,100,VALID,0,VALID,18.507,VALID,128,VALID,0.65718,
2005-01-07, 00:19:00,VALID,919.573,VALID,0,VALID,100,VALID,0.0849042,VALID,18.5068,VALID,102,VALID,0.560243,
2005-01-07, 00:20:00,VALID,919.55,VALID,0,VALID,100,VALID,0.101885,VALID,18.4999,VALID,95,VALID,0.652253,
2005-01-07, 00:21:00,VALID,919.535,VALID,0,VALID,100,VALID,0.101885,VALID,18.5001,VALID,103,VALID,0.737424,
2005-01-07, 00:22:00,VALID,919.519,VALID,0,VALID,100,VALID,0.0849042,VALID,18.4904,VALID,101,VALID,0.87571,
2005-01-07, 00:23:00,VALID,919.495,VALID,0,VALID,100,VALID,0.101885,VALID,18.4837,VALID,94,VALID,0.855923,
2005-01-07, 00:24:00,VALID,919.461,VALID,0,VALID,100,VALID,0.101885,VALID,18.4872,VALID,84,VALID,0.83327,
2005-01-07, 00:25:00,VALID,919.446,VALID,0,VALID,100,VALID,0.101885,VALID,18.4897,VALID,61,VALID,0.93045,
2005-01-07, 00:26:00,VALID,919.43,VALID,0.2,VALID,100,VALID,0.101885,VALID,18.4832,VALID,71,VALID,0.94809,
2005-01-07, 00:27:00,VALID,919.4,VALID,0,VALID,100,VALID,0.0849042,VALID,18.4837,VALID,78,VALID,1.18688,
2005-01-07, 00:28:00,VALID,919.379,VALID,0,VALID,100,VALID,0.0849042,VALID,18.442,VALID,83,VALID,1.14668,
2005-01-07, 00:29:00,VALID,919.377,VALID,0,VALID,100,VALID,0.101885,VALID,18.4191,VALID,66,VALID,1.04324,
2005-01-07, 00:30:00,VALID,919.365,VALID,0,VALID,100,VALID,0.101885,VALID,18.406,VALID,72,VALID,1.06306,
2005-01-07, 00:31:00,VALID,919.347,VALID,0,VALID,100,VALID,0.118866,VALID,18.4194,VALID,65,VALID,0.670632,
2005-01-07, 00:32:00,VALID,919.327,VALID,0,VALID,100,VALID,0.0849042,VALID,18.409,VALID,75,VALID,0.935417,
2005-01-07, 00:33:00,VALID,919.318,VALID,0,VALID,100,VALID,0.0849042,VALID,18.4159,VALID,83,VALID,0.918857,
2005-01-07, 00:34:00,VALID,919.302,VALID,0,VALID,100,VALID,0.0169808,VALID,18.4203,VALID,91,VALID,1.04379,
2005-01-07, 00:35:00,VALID,919.285,VALID,0,VALID,100,VALID,-0.0169808,VALID,18.4272,VALID,54,VALID,0.712462,
2005-01-07, 00:36:00,VALID,919.271,VALID,0,VALID,100,VALID,-0.0339617,VALID,18.4371,VALID,96,VALID,0.758594,
2005-01-07, 00:37:00,VALID,919.254,VALID,0,VALID,100,VALID,0,VALID,18.4334,VALID,104,VALID,0.560454,
2005-01-07, 00:38:00,VALID,919.247,VALID,0,VALID,100,VALID,0,VALID,18.4397,VALID,106,VALID,0.661204,
2005-01-07, 00:39:00,VALID,919.258,VALID,0,VALID,100,VALID,0,VALID,18.456,VALID,117,VALID,0.662064,
2005-01-07, 00:40:00,VALID,919.254,VALID,0,VALID,100,VALID,0,VALID,18.4558,VALID,118,VALID,0.701029,
2005-01-07, 00:41:00,VALID,919.258,VALID,0,VALID,100,VALID,0,VALID,18.469,VALID,120,VALID,0.924253,
2005-01-07, 00:42:00,VALID,919.267,VALID,0,VALID,100,VALID,0,VALID,18.4851,VALID,125,VALID,0.827217,
2005-01-07, 00:43:00,VALID,919.261,VALID,0.2,VALID,100,VALID,0,VALID,18.4978,VALID,137,VALID,0.904344,
2005-01-07, 00:44:00,VALID,919.268,VALID,0,VALID,100,VALID,0,VALID,18.5269,VALID,128,VALID,0.494474,
2005-01-07, 00:45:00,VALID,919.257,VALID,0,VALID,100,VALID,0.0169808,VALID,18.5402,VALID,124,VALID,0.916853,
2005-01-07, 00:46:00,VALID,919.244,VALID,0,VALID,100,VALID,0,VALID,18.5465,VALID,110,VALID,0.731771,
2005-01-07, 00:47:00,VALID,919.224,VALID,0,VALID,100,VALID,0,VALID,18.5534,VALID,97,VALID,0.726563,
2005-01-07, 00:48:00,VALID,919.225,VALID,0,VALID,100,VALID,0,VALID,18.5462,VALID,50,VALID,0.888148,
2005-01-07, 00:49:00,VALID,919.215,VALID,0,VALID,100,VALID,0,VALID,18.5338,VALID,36,VALID,0.980945,
2005-01-07, 00:50:00,VALID,919.221,VALID,0,VALID,100,VALID,0.0169808,VALID,18.5239,VALID,46,VALID,1.10801,
2005-01-07, 00:51:00,VALID,919.215,VALID,0,VALID,100,VALID,-0.0509425,VALID,18.5176,VALID,50,VALID,0.850632,
2005-01-07, 00:52:00,VALID,919.203,VALID,0,VALID,100,VALID,0,VALID,18.505,VALID,50,VALID,0.733467,
2005-01-07, 00:53:00,VALID,919.204,VALID,0,VALID,100,VALID,0,VALID,18.4911,VALID,44,VALID,0.834449,
2005-01-07, 00:54:00,VALID,919.194,VALID,0,VALID,100,VALID,0,VALID,18.4946,VALID,55,VALID,0.783727,
2005-01-07, 00:55:00,VALID,919.199,VALID,0,VALID,100,VALID,0.0169808,VALID,18.4946,VALID,60,VALID,0.486607,
2005-01-07, 00:56:00,VALID,919.181,VALID,0,VALID,100,VALID,0,VALID,18.5077,VALID,57,VALID,0.739025,
2005-01-07, 00:57:00,VALID,919.19,VALID,0,VALID,100,VALID,0,VALID,18.5174,VALID,49,VALID,0.583984,
2005-01-07, 00:58:00,VALID,919.189,VALID,0,VALID,100,VALID,0,VALID,18.5209,VALID,69,VALID,0.615057,
2005-01-07, 00:59:00,VALID,919.177,VALID,0,VALID,100,VALID,0,VALID,18.5112,VALID,102,VALID,0.632631,
2005-01-07, 01:00:00,VALID,919.166,VALID,0,VALID,100,VALID,-0.0169808,VALID,18.4918,VALID,125,VALID,0.931734,
2005-01-07, 01:01:00,VALID,919.142,VALID,0,VALID,100,VALID,0,VALID,18.5015,VALID,142,VALID,0.932173,
2005-01-07, 01:02:00,VALID,919.119,VALID,0,VALID,100,VALID,0.0339617,VALID,18.4983,VALID,142,VALID,0.991461,
2005-01-07, 01:03:00,VALID,919.102,VALID,0,VALID,100,VALID,0.0169808,VALID,18.5047,VALID,136,VALID,1.01328,
2005-01-07, 01:04:00,VALID,919.085,VALID,0,VALID,100,VALID,0,VALID,18.495,VALID,142,VALID,0.94029,
2005-01-07, 01:05:00,VALID,919.075,VALID,0,VALID,100,VALID,0,VALID,18.4918,VALID,136,VALID,0.756882,
2005-01-07, 01:06:00,VALID,919.054,VALID,0,VALID,100,VALID,0,VALID,18.4983,VALID,113,VALID,0.678735,
2005-01-07, 01:07:00,VALID,919.049,VALID,0,VALID,100,VALID,0,VALID,18.4983,VALID,105,VALID,0.663336,
2005-01-07, 01:08:00,VALID,919.03,VALID,0,VALID,100,VALID,-0.0339617,VALID,18.4918,VALID,121,VALID,0.791159,
2005-01-07, 01:09:00,VALID,919.005,VALID,0,VALID,100,VALID,-0.0169808,VALID,18.4881,VALID,134,VALID,0.603981,
2005-01-07, 01:10:00,VALID,918.987,VALID,0,VALID,100,VALID,-0.0169808,VALID,18.5047,VALID,137,VALID,1.03544,
2005-01-07, 01:11:00,VALID,918.96,VALID,0,VALID,100,VALID,0,VALID,18.5017,VALID,137,VALID,1.18788,
2005-01-07, 01:12:00,VALID,918.934,VALID,0.2,VALID,100,VALID,-0.0169808,VALID,18.4983,VALID,134,VALID,1.0556,
2005-01-07, 01:13:00,VALID,918.911,VALID,0,VALID,100,VALID,-0.0169808,VALID,18.4816,VALID,134,VALID,1.16726,
2005-01-07, 01:14:00,VALID,918.881,VALID,0,VALID,100,VALID,-0.0169808,VALID,18.4851,VALID,134,VALID,0.766026,
2005-01-07, 01:15:00,VALID,918.857,VALID,0,VALID,100,VALID,0,VALID,18.4787,VALID,126,VALID,0.995808,
2005-01-07, 01:16:00,VALID,918.844,VALID,0,VALID,100,VALID,0,VALID,18.4849,VALID,129,VALID,1.39531,
2005-01-07, 01:17:00,VALID,918.821,VALID,0,VALID,100,VALID,-0.0169808,VALID,18.4752,VALID,139,VALID,1.0266,
2005-01-07, 01:18:00,VALID,918.808,VALID,0,VALID,100,VALID,0.0169808,VALID,18.495,VALID,140,VALID,0.776325,
2005-01-07, 01:19:00,VALID,918.812,VALID,0,VALID,100,VALID,0.0169808,VALID,18.4948,VALID,126,VALID,0.803757,
2005-01-07, 01:20:00,VALID,918.812,VALID,0,VALID,100,VALID,-0.0169808,VALID,18.4883,VALID,117,VALID,0.565589,
2005-01-07, 01:21:00,VALID,918.809,VALID,0,VALID,100,VALID,0,VALID,18.4851,VALID,72,VALID,0.895419,
2005-01-07, 01:22:00,VALID,918.792,VALID,0,VALID,100,VALID,-0.0339617,VALID,18.4985,VALID,64,VALID,1.03887,
2005-01-07, 01:23:00,VALID,918.792,VALID,0,VALID,100,VALID,0.0169808,VALID,18.4946,VALID,52,VALID,0.874442,
2005-01-07, 01:24:00,VALID,918.787,VALID,0,VALID,100,VALID,0,VALID,18.502,VALID,61,VALID,0.49201,
2005-01-07, 01:25:00,VALID,918.766,VALID,0,VALID,100,VALID,0,VALID,18.4883,VALID,60,VALID,0.380729,
2005-01-07, 01:26:00,VALID,918.739,VALID,0,VALID,100,VALID,0.0169808,VALID,18.4918,VALID,61,VALID,0.493862,
2005-01-07, 01:27:00,VALID,918.718,VALID,0,VALID,100,VALID,0.0339617,VALID,18.4715,VALID,75,VALID,0.669567,
2005-01-07, 01:28:00,VALID,918.697,VALID,0,VALID,100,VALID,0.0169808,VALID,18.469,VALID,106,VALID,0.880335,
2005-01-07, 01:29:00,VALID,918.658,VALID,0,VALID,100,VALID,0.0169808,VALID,18.4558,VALID,98,VALID,1.1108,
2005-01-07, 01:30:00,VALID,918.647,VALID,0,VALID,100,VALID,0.0509425,VALID,18.4457,VALID,118,VALID,0.915698,
2005-01-07, 01:31:00,VALID,918.63,VALID,0,VALID,100,VALID,0.0339617,VALID,18.4593,VALID,126,VALID,0.975391,
2005-01-07, 01:32:00,VALID,918.604,VALID,0,VALID,100,VALID,0,VALID,18.4588,VALID,129,VALID,1.35465,
2005-01-07, 01:33:00,VALID,918.576,VALID,0,VALID,100,VALID,0,VALID,18.4593,VALID,136,VALID,1.5823,
2005-01-07, 01:34:00,VALID,918.562,VALID,0,VALID,100,VALID,-0.0169808,VALID,18.4588,VALID,139,VALID,1.69004,
2005-01-07, 01:35:00,VALID,918.553,VALID,0,VALID,100,VALID,0.0169808,VALID,18.4754,VALID,141,VALID,1.54772,
2005-01-07, 01:36:00,VALID,918.536,VALID,0,VALID,100,VALID,0.0169808,VALID,18.4784,VALID,140,VALID,1.14648,
2005-01-07, 01:37:00,VALID,918.517,VALID,0,VALID,100,VALID,0,VALID,18.4814,VALID,154,VALID,0.923295,
2005-01-07, 01:38:00,VALID,918.484,VALID,0.2,VALID,100,VALID,0.0169808,VALID,18.4814,VALID,142,VALID,1.69407,
2005-01-07, 01:39:00,VALID,918.469,VALID,0,VALID,100,VALID,0,VALID,18.4752,VALID,139,VALID,1.51634,
2005-01-07, 01:40:00,VALID,918.467,VALID,0,VALID,100,VALID,0.0169808,VALID,18.475,VALID,148,VALID,1.42587,
2005-01-07, 01:41:00,VALID,918.446,VALID,0,VALID,100,VALID,0,VALID,18.4784,VALID,142,VALID,1.13027,
2005-01-07, 01:42:00,VALID,918.442,VALID,0,VALID,100,VALID,0.0339617,VALID,18.4817,VALID,145,VALID,0.949219,
2005-01-07, 01:43:00,VALID,918.432,VALID,0,VALID,100,VALID,0.0339617,VALID,18.4814,VALID,134,VALID,1.47248,
2005-01-07, 01:44:00,VALID,918.417,VALID,0,VALID,100,VALID,0.0169808,VALID,18.475,VALID,136,VALID,1.00309,
2005-01-07, 01:45:00,VALID,918.386,VALID,0,VALID,100,VALID,0,VALID,18.4918,VALID,139,VALID,1.3032,
2005-01-07, 01:46:00,VALID,918.377,VALID,0,VALID,100,VALID,0.0169808,VALID,18.4687,VALID,135,VALID,1.33519,
2005-01-07, 01:47:00,VALID,918.363,VALID,0,VALID,100,VALID,0.0169808,VALID,18.4784,VALID,137,VALID,1.0712,
2005-01-07, 01:48:00,VALID,918.349,VALID,0,VALID,100,VALID,0.0339617,VALID,18.4653,VALID,132,VALID,1.18715,
2005-01-07, 01:49:00,VALID,918.341,VALID,0,VALID,100,VALID,0.0169808,VALID,18.4526,VALID,138,VALID,0.636083,
2005-01-07, 01:50:00,VALID,918.321,VALID,0,VALID,100,VALID,0.0169808,VALID,18.4657,VALID,137,VALID,1.05122,
2005-01-07, 01:51:00,VALID,918.292,VALID,0,VALID,100,VALID,0,VALID,18.4533,VALID,133,VALID,1.05879,
2005-01-07, 01:52:00,VALID,918.289,VALID,0,VALID,100,VALID,0,VALID,18.4565,VALID,141,VALID,1.37021,
2005-01-07, 01:53:00,VALID,918.262,VALID,0,VALID,100,VALID,0,VALID,18.4362,VALID,142,VALID,1.17485,
2005-01-07, 01:54:00,VALID,918.252,VALID,0,VALID,100,VALID,0,VALID,18.4367,VALID,142,VALID,1.23552,
2005-01-07, 01:55:00,VALID,918.229,VALID,0,VALID,100,VALID,0,VALID,18.4498,VALID,152,VALID,1.08668,
2005-01-07, 01:56:00,VALID,918.225,VALID,0,VALID,100,VALID,0.0169808,VALID,18.4401,VALID,149,VALID,1.51082,
2005-01-07, 01:57:00,VALID,918.213,VALID,0,VALID,100,VALID,0,VALID,18.4334,VALID,150,VALID,1.21246,
2005-01-07, 01:58:00,VALID,918.186,VALID,0,VALID,100,VALID,-0.0169808,VALID,18.4334,VALID,147,VALID,1.33185,
2005-01-07, 01:59:00,VALID,918.183,VALID,0,VALID,100,VALID,0.0169808,VALID,18.4371,VALID,149,VALID,1.318,
2005-01-07, 02:00:00,VALID,918.178,VALID,0,VALID,100,VALID,0.0169808,VALID,18.4238,VALID,145,VALID,1.02021,
2005-01-07, 02:01:00,VALID,918.17,VALID,0,VALID,100,VALID,0.0339617,VALID,18.4238,VALID,139,VALID,1.25994,
2005-01-07, 02:02:00,VALID,918.159,VALID,0,VALID,100,VALID,0.0169808,VALID,18.4173,VALID,126,VALID,0.968192,
2005-01-07, 02:03:00,VALID,918.155,VALID,0,VALID,100,VALID,0,VALID,18.4171,VALID,114,VALID,0.592147,
2005-01-07, 02:04:00,VALID,918.144,VALID,0,VALID,100,VALID,0.0169808,VALID,18.4141,VALID,120,VALID,1.01225,
2005-01-07, 02:05:00,VALID,918.139,VALID,0,VALID,100,VALID,0,VALID,18.4173,VALID,123,VALID,0.978906,
2005-01-07, 02:06:00,VALID,918.134,VALID,0,VALID,100,VALID,0,VALID,18.4076,VALID,113,VALID,0.757813,
2005-01-07, 02:07:00,VALID,918.097,VALID,0,VALID,100,VALID,-0.0169808,VALID,18.4106,VALID,113,VALID,0.818598,
2005-01-07, 02:08:00,VALID,918.075,VALID,0,VALID,100,VALID,-0.0169808,VALID,18.4143,VALID,114,VALID,0.700457,
2005-01-07, 02:09:00,VALID,918.056,VALID,0,VALID,100,VALID,0.0169808,VALID,18.4078,VALID,136,VALID,0.757267,
2005-01-07, 02:10:00,VALID,918.029,VALID,0,VALID,100,VALID,0,VALID,18.3915,VALID,135,VALID,0.891369,
2005-01-07, 02:11:00,VALID,918.012,VALID,0,VALID,100,VALID,0,VALID,18.4078,VALID,134,VALID,0.803089,
2005-01-07, 02:12:00,VALID,917.992,VALID,0,VALID,100,VALID,0,VALID,18.4111,VALID,140,VALID,0.98418,
2005-01-07, 02:13:00,VALID,917.986,VALID,0,VALID,100,VALID,0,VALID,18.4042,VALID,134,VALID,1.01523,
2005-01-07, 02:14:00,VALID,917.975,VALID,0,VALID,100,VALID,0.0169808,VALID,18.4046,VALID,136,VALID,1.0657,
2005-01-07, 02:15:00,VALID,917.966,VALID,0,VALID,100,VALID,0,VALID,18.4106,VALID,133,VALID,0.96875,
2005-01-07, 02:16:00,VALID,917.957,VALID,0,VALID,100,VALID,0,VALID,18.4173,VALID,132,VALID,0.476563,
2005-01-07, 02:17:00,VALID,917.948,VALID,0,VALID,100,VALID,0,VALID,18.4242,VALID,138,VALID,0.740057,
2005-01-07, 02:18:00,VALID,917.936,VALID,0,VALID,100,VALID,0,VALID,18.4175,VALID,136,VALID,0.572409,
2005-01-07, 02:19:00,VALID,917.934,VALID,0,VALID,100,VALID,0,VALID,18.4245,VALID,138,VALID,0.755319,
2005-01-07, 02:20:00,VALID,917.922,VALID,0,VALID,100,VALID,0,VALID,18.4178,VALID,136,VALID,0.674055,
2005-01-07, 02:21:00,VALID,917.904,VALID,0,VALID,100,VALID,0.0169808,VALID,18.4277,VALID,129,VALID,0.667874,
2005-01-07, 02:22:00,VALID,917.884,VALID,0,VALID,100,VALID,-0.0339617,VALID,18.4148,VALID,138,VALID,0.778963,
2005-01-07, 02:23:00,VALID,917.871,VALID,0,VALID,100,VALID,-0.0169808,VALID,18.4083,VALID,130,VALID,0.775868,
2005-01-07, 02:24:00,VALID,917.858,VALID,0,VALID,100,VALID,-0.0339617,VALID,18.3952,VALID,124,VALID,0.560454,
2005-01-07, 02:25:00,VALID,917.855,VALID,0,VALID,100,VALID,0,VALID,18.3919,VALID,133,VALID,0.887005,
2005-01-07, 02:26:00,VALID,917.865,VALID,0,VALID,100,VALID,-0.0679233,VALID,18.3857,VALID,123,VALID,0.762277,
2005-01-07, 02:27:00,VALID,917.861,VALID,0,VALID,100,VALID,-0.0509425,VALID,18.3723,VALID,117,VALID,0.543056,
2005-01-07, 02:28:00,VALID,917.856,VALID,0,VALID,100,VALID,-0.0169808,VALID,18.3857,VALID,119,VALID,0.630996,
2005-01-07, 02:29:00,VALID,917.844,VALID,0,VALID,100,VALID,-0.0169808,VALID,18.3889,VALID,137,VALID,1.02493,
2005-01-07, 02:30:00,VALID,917.821,VALID,0,VALID,100,VALID,-0.0169808,VALID,18.3887,VALID,135,VALID,0.891555,
2005-01-07, 02:31:00,VALID,917.802,VALID,0,VALID,100,VALID,-0.0169808,VALID,18.4016,VALID,140,VALID,0.591146,
2005-01-07, 02:32:00,VALID,917.798,VALID,0,VALID,100,VALID,0,VALID,18.4018,VALID,148,VALID,1.35338,
2005-01-07, 02:33:00,VALID,917.791,VALID,0,VALID,100,VALID,-0.0169808,VALID,18.4019,VALID,156,VALID,1.00278,
2005-01-07, 02:34:00,VALID,917.795,VALID,0,VALID,100,VALID,-0.0509425,VALID,18.4051,VALID,165,VALID,0.927734,
2005-01-07, 02:35:00,VALID,917.779,VALID,0,VALID,100,VALID,-0.0339617,VALID,18.4247,VALID,157,VALID,0.694568,
2005-01-07, 02:36:00,VALID,917.759,VALID,0,VALID,100,VALID,-0.0679233,VALID,18.4148,VALID,157,VALID,0.842607,
2005-01-07, 02:37:00,VALID,917.739,VALID,0,VALID,100,VALID,-0.0509425,VALID,18.421,VALID,162,VALID,0.913872,
2005-01-07, 02:38:00,VALID,917.737,VALID,0,VALID,100,VALID,-0.0339617,VALID,18.418,VALID,155,VALID,0.955487,
2005-01-07, 02:39:00,VALID,917.732,VALID,0,VALID,100,VALID,-0.0509425,VALID,18.4247,VALID,148,VALID,0.573289,
2005-01-07, 02:40:00,VALID,917.736,VALID,0,VALID,100,VALID,-0.0339617,VALID,18.4249,VALID,134,VALID,0.946075,
2005-01-07, 02:41:00,VALID,917.729,VALID,0,VALID,100,VALID,0,VALID,18.4016,VALID,149,VALID,1.15139,
2005-01-07, 02:42:00,VALID,917.726,VALID,0,VALID,100,VALID,-0.0339617,VALID,18.3947,VALID,141,VALID,0.867188,
2005-01-07, 02:43:00,VALID,917.723,VALID,0,VALID,100,VALID,0,VALID,18.4085,VALID,142,VALID,1.01708,
2005-01-07, 02:44:00,VALID,917.717,VALID,0,VALID,100,VALID,-0.0169808,VALID,18.3952,VALID,129,VALID,0.934832,
2005-01-07, 02:45:00,VALID,917.729,VALID,0,VALID,100,VALID,-0.0339617,VALID,18.3887,VALID,117,VALID,0.785342,
2005-01-07, 02:46:00,VALID,917.736,VALID,0,VALID,100,VALID,-0.0339617,VALID,18.3889,VALID,115,VALID,1.11992,
2005-01-07, 02:47:00,VALID,917.735,VALID,0,VALID,100,VALID,-0.0169808,VALID,18.3795,VALID,106,VALID,0.912891,
2005-01-07, 02:48:00,VALID,917.725,VALID,0,VALID,100,VALID,-0.0679233,VALID,18.3656,VALID,108,VALID,0.80599,
2005-01-07, 02:49:00,VALID,917.714,VALID,0,VALID,100,VALID,0.0679233,VALID,18.3647,VALID,98,VALID,0.710193,
2005-01-07, 02:50:00,VALID,917.695,VALID,0,VALID,100,VALID,0.0849042,VALID,18.3709,VALID,96,VALID,0.612723,
2005-01-07, 02:51:00,VALID,917.688,VALID,0,VALID,100,VALID,0.0509425,VALID,18.3679,VALID,120,VALID,0.650073,
2005-01-07, 02:52:00,VALID,917.671,VALID,0,VALID,100,VALID,0.101885,VALID,18.3613,VALID,119,VALID,0.715909,
2005-01-07, 02:53:00,VALID,917.67,VALID,0,VALID,100,VALID,0.0849042,VALID,18.3578,VALID,110,VALID,0.860647,
2005-01-07, 02:54:00,VALID,917.664,VALID,0,VALID,100,VALID,0.0679233,VALID,18.355,VALID,108,VALID,0.911337,
2005-01-07, 02:55:00,VALID,917.654,VALID,0,VALID,100,VALID,0.0509425,VALID,18.352,VALID,91,VALID,0.636991,
2005-01-07, 02:56:00,VALID,917.643,VALID,0,VALID,100,VALID,0.0849042,VALID,18.358,VALID,93,VALID,0.937695,
2005-01-07, 02:57:00,VALID,917.642,VALID,0,VALID,100,VALID,0.101885,VALID,18.358,VALID,98,VALID,1.15282,
2005-01-07, 02:58:00,VALID,917.62,VALID,0,VALID,100,VALID,0.0849042,VALID,18.3716,VALID,102,VALID,0.914063,
2005-01-07, 02:59:00,VALID,917.605,VALID,0,VALID,100,VALID,0.0849042,VALID,18.3613,VALID,108,VALID,0.658482,
2005-01-07, 03:00:00,VALID,917.593,VALID,0,VALID,100,VALID,0.101885,VALID,18.3749,VALID,111,VALID,0.931323,
2005-01-07, 03:01:00,VALID,917.584,VALID,0,VALID,100,VALID,0.0509425,VALID,18.3649,VALID,105,VALID,0.851004,
2005-01-07, 03:02:00,VALID,917.568,VALID,0,VALID,100,VALID,0.0849042,VALID,18.3617,VALID,106,VALID,0.75071,
2005-01-07, 03:03:00,VALID,917.569,VALID,0,VALID,100,VALID,0.0679233,VALID,18.3684,VALID,110,VALID,0.822173,
2005-01-07, 03:04:00,VALID,917.557,VALID,0,VALID,100,VALID,-0.0169808,VALID,18.3596,VALID,119,VALID,0.911577,
2005-01-07, 03:05:00,VALID,917.56,VALID,0,VALID,100,VALID,-0.0169808,VALID,18.3661,VALID,125,VALID,1.13608,
2005-01-07, 03:06:00,VALID,917.564,VALID,0,VALID,100,VALID,-0.0509425,VALID,18.3896,VALID,120,VALID,0.873728,
2005-01-07, 03:07:00,VALID,917.555,VALID,0,VALID,100,VALID,-0.0339617,VALID,18.3857,VALID,115,VALID,0.84375,
2005-01-07, 03:08:00,VALID,917.561,VALID,0,VALID,100,VALID,0,VALID,18.3758,VALID,109,VALID,0.890092,
2005-01-07, 03:09:00,VALID,917.565,VALID,0,VALID,100,VALID,-0.0169808,VALID,18.3857,VALID,111,VALID,1.05558,
2005-01-07, 03:10:00,VALID,917.563,VALID,0,VALID,100,VALID,-0.0339617,VALID,18.3859,VALID,133,VALID,0.920785,
2005-01-07, 03:11:00,VALID,917.55,VALID,0,VALID,100,VALID,-0.0169808,VALID,18.3857,VALID,107,VALID,0.985156,
2005-01-07, 03:12:00,VALID,917.549,VALID,0,VALID,100,VALID,-0.0169808,VALID,18.3954,VALID,119,VALID,0.691501,
2005-01-07, 03:13:00,VALID,917.536,VALID,0,VALID,100,VALID,-0.0509425,VALID,18.3922,VALID,119,VALID,1.04978,
2005-01-07, 03:14:00,VALID,917.523,VALID,0,VALID,100,VALID,-0.0339617,VALID,18.4085,VALID,126,VALID,1.14291,
2005-01-07, 03:15:00,VALID,917.521,VALID,0,VALID,100,VALID,-0.0679233,VALID,18.4279,VALID,115,VALID,1.05061,
2005-01-07, 03:16:00,VALID,917.519,VALID,0,VALID,100,VALID,-0.0509425,VALID,18.4245,VALID,115,VALID,0.840511,
2005-01-07, 03:17:00,VALID,917.514,VALID,0,VALID,100,VALID,-0.0339617,VALID,18.4277,VALID,128,VALID,1.07395,
2005-01-07, 03:18:00,VALID,917.521,VALID,0,VALID,100,VALID,-0.0169808,VALID,18.4344,VALID,134,VALID,1.36679,
2005-01-07, 03:19:00,VALID,917.507,VALID,0,VALID,100,VALID,0,VALID,18.4145,VALID,135,VALID,1.08594,
2005-01-07, 03:20:00,VALID,917.502,VALID,0,VALID,100,VALID,0,VALID,18.4185,VALID,133,VALID,1.39353,
2005-01-07, 03:21:00,VALID,917.498,VALID,0,VALID,100,VALID,0,VALID,18.4083,VALID,126,VALID,1.30291,
2005-01-07, 03:22:00,VALID,917.474,VALID,0,VALID,100,VALID,-0.0339617,VALID,18.4019,VALID,128,VALID,1.50305,
2005-01-07, 03:23:00,VALID,917.459,VALID,0,VALID,100,VALID,-0.0339617,VALID,18.3989,VALID,143,VALID,0.70191,
2005-01-07, 03:24:00,VALID,917.44,VALID,0,VALID,100,VALID,-0.0169808,VALID,18.3818,VALID,101,VALID,1.01272,
2005-01-07, 03:25:00,VALID,917.435,VALID,0,VALID,100,VALID,-0.0169808,VALID,18.3855,VALID,111,VALID,0.865885,
2005-01-07, 03:26:00,VALID,917.435,VALID,0,VALID,100,VALID,-0.0169808,VALID,18.3728,VALID,125,VALID,0.3621,
2005-01-07, 03:27:00,VALID,917.432,VALID,0,VALID,100,VALID,-0.0339617,VALID,18.3855,VALID,83,VALID,0.70846,
2005-01-07, 03:28:00,VALID,917.418,VALID,0,VALID,100,VALID,0,VALID,18.3889,VALID,107,VALID,0.734933,
2005-01-07, 03:29:01,VALID,917.426,VALID,0,VALID,100,VALID,0,VALID,18.376,VALID,106,VALID,0.646484,
2005-01-07, 03:30:00,VALID,917.421,VALID,0,VALID,100,VALID,0,VALID,18.3659,VALID,102,VALID,0.853468,
2005-01-07, 03:31:00,VALID,917.414,VALID,0,VALID,100,VALID,-0.0169808,VALID,18.3589,VALID,100,VALID,0.922656,
2005-01-07, 03:32:01,VALID,917.404,VALID,0,VALID,100,VALID,0,VALID,18.3534,VALID,83,VALID,0.711496,
2005-01-07, 03:33:00,VALID,917.385,VALID,0,VALID,100,VALID,0,VALID,18.3465,VALID,89,VALID,0.586719,
2005-01-07, 03:34:00,VALID,917.361,VALID,0,VALID,100,VALID,-0.0509425,VALID,18.3435,VALID,97,VALID,0.726172,
2005-01-07, 03:35:00,VALID,917.35,VALID,0,VALID,100,VALID,0,VALID,18.3241,VALID,82,VALID,0.842076,
2005-01-07, 03:36:00,VALID,917.338,VALID,0,VALID,100,VALID,-0.0169808,VALID,18.3015,VALID,90,VALID,0.72945,
2005-01-07, 03:37:00,VALID,917.337,VALID,0,VALID,100,VALID,-0.0339617,VALID,18.3013,VALID,82,VALID,0.273074,
2005-01-07, 03:38:00,VALID,917.323,VALID,0,VALID,100,VALID,0,VALID,18.3017,VALID,82,VALID,0.457217,
2005-01-07, 03:39:00,VALID,917.331,VALID,0,VALID,100,VALID,-0.0169808,VALID,18.2948,VALID,82,VALID,0.201172,
2005-01-07, 03:40:00,VALID,917.323,VALID,0,VALID,100,VALID,-0.0169808,VALID,18.2914,VALID,79,VALID,0.303234,
2005-01-07, 03:41:00,VALID,917.326,VALID,0,VALID,100,VALID,-0.0169808,VALID,18.2785,VALID,73,VALID,0.370276,
2005-01-07, 03:42:00,VALID,917.317,VALID,0,VALID,100,VALID,-0.0169808,VALID,18.272,VALID,73,VALID,0.225329,